Back to catalog

THORAD AGENA D DEB

AliveLEO
NORAD 4209·DEBRIS·🇺🇸 United States

Launched Sep 30, 1969 from Vandenberg Space Force Base

Loading…

Next Passes (next 24 hours)

TLE

FreshSource: Space-Track

Epoch: Sep 14, 2026, 15:02 UTC

1 04209U 69082BY  26257.62684501 -.00000061  00000-0 -40063-5 0  9991
2 04209  70.0347  16.1628 0041270 203.4466 156.4765 14.05074007916526

Track THORAD AGENA D DEB in real time with AllMySat

Download on the App Store